Regional Weather Roundup
Issued by NWS Wakefield, VA

Home | Current Version | Previous Version | Graphics & Text | Print | Product List | Glossary On
Versions: 1 2 3 4 5 6 7 8 9 10 11 12 13 14 15 16 17 18 19 20 21 22 23 24 25 26 27
000
ASUS41 KAKQ 190515
RWRAKQ

REGIONAL WEATHER ROUNDUP
NATIONAL WEATHER SERVICE WAKEFIELD VA
100 AM EDT THU OCT 19 2017

Note: "fair" indicates few or no clouds below 12,000 feet with no
significant weather and/or obstructions to visibility. * = Denotes
station may not report precipitation (e.g., rain,snow,etc.),
thunder or fog.

VAZ042-051-052>054-056-190600-
NORTHERN VIRGINIA

CITY           SKY/WX    TMP DP  RH WIND       PRES   REMARKS
WASH NATIONAL  MOCLDY    53  49  86 SW6       30.31F
DULLES         PTCLDY    46  44  93 S5        30.30S
FORT BELVOIR   CLEAR     45  44  95 CALM      30.31S
QUANTICO       PTCLDY    49  48  97 NW7       30.32S
FREDERICKSBRG* PTCLDY    45  45 100 CALM      30.31S
STAFFORD*      PTCLDY    39  39 100 CALM      30.36S
WARRENTON      PTCLDY    38  36  90 CALM      30.30S
CULPEPER*      CLEAR     41  39  93 CALM      30.31F
MANASSAS*      CLEAR     42  42 100 CALM      30.31F
LEESBURG*      CLEAR     46  46 100 CALM      30.31S
WINCHESTER     CLEAR     48  41  76 CALM      30.28S
FRONT ROYAL*   CLEAR     48  41  76 S5        30.27F
LURAY*         CLEAR     45  41  87 CALM      30.29F
$$

VAZ048-049-060>072-079>083-190600-
CENTRAL AND SOUTH CENTRAL VIRGINIA

CITY           SKY/WX    TMP DP  RH WIND       PRES   REMARKS
RICHMOND       CLOUDY    48  44  86 CALM      30.32F
CHESTERFIELD*  NOT AVBL
PETERSBURG*    CLEAR    N/A N/A N/A CALM      30.33F
HANOVER        CLOUDY    44  42  93 CALM      30.33F
TAPPAHANNOCK*  CLOUDY   N/A N/A N/A CALM      30.33S
QUINTON*       FAIR      45  45 100 CALM      30.32F
CHARLOTTSVILLE CLEAR     49  44  83 SW3       30.30F
GORDONSVILLE*  CLEAR     41  41 100 CALM      30.31S
ORANGE*        CLEAR     41  39  93 CALM      30.31S
LOUISA*        CLEAR     39  37  93 CALM      30.31S
BUMPASS*       FAIR      44  44 100 SW5       30.32R
FARMVILLE*     CLEAR     40  40 100 CALM      30.31F
CREWE*         FAIR      40  40 100 CALM      30.32S
FORT PICKETT*  FAIR      44  44 100 CALM      30.32F
CHASE CITY*    FAIR      43  43 100 CALM      30.32F
CLARKSVILLE*   FAIR      43  43 100 CALM      30.32S
SOUTH HILL*    CLEAR     41  41  99 CALM      30.37F
LAWRENCEVILLE* FAIR      45  44  96 CALM      30.32S
EMPORIA*       CLEAR     41  41 100 CALM      30.34S
$$

VAZ088>098-190600-
SOUTHEAST VIRGINIA

CITY           SKY/WX    TMP DP  RH WIND       PRES   REMARKS
NORFOLK        CLEAR     54  51  90 CALM      30.31F
VIRGINIA BEACH CLEAR     50  47  89 CALM      30.31S
NORFOLK NAVAL  CLEAR     52  48  86 CALM      30.33S
WEST POINT*    CLEAR     42  42 100 CALM      30.34S
SALUDA*        FAIR      46  46 100 CALM      30.32F
NEWPORT NEWS   CLEAR     46  45  96 CALM      30.32F
LANGLEY AFB    CLEAR     49  49  97 CALM      30.31F
FORT EUSTIS    CLEAR     49  45  85 CALM      30.29F
WILLIAMSBURG*  CLEAR     50  50 100 CALM      30.33F
HR EXEC AP*    NOT AVBL
FRANKLIN*      CLEAR     44  43  97 CALM      30.33S
US460-WAKEFLD  CLEAR     45  44  97 CALM      30.32F
$$

VAZ020-022-025-037-045-190600-
WEST CENTRAL AND SOUTHWEST VIRGINIA

CITY           SKY/WX    TMP DP  RH WIND       PRES   REMARKS
STAUNTON*      CLEAR     42  38  86 S3        30.31F
WAYNESBORO*    PTCLDY    43  41  92 S3        30.31F
HOT SPRINGS VA CLOUDY    50  33  51 CALM      30.33F
LYNCHBURG      PTCLDY    42  39  89 CALM      30.32F
DANVILLE       CLEAR     40  32  73 CALM      30.32F
SOUTH BOSTON*  FAIR      38  37  96 CALM      30.32F
MARTINSVILLE   CLOUDY    38  38  97 CALM      30.36S
ROANOKE        PTCLDY    46  42  86 CALM      30.34F
BLACKSBURG     PTCLDY    44  42  91 CALM      30.36F
DUBLIN*        CLOUDY    45  42  90 CALM      30.35S
MARION*        CLEAR     44  39  82 CALM      30.35F
HILLSVILLE*    PTCLDY    48  35  62 CALM      30.33S
RICHLANDS*     FAIR      54   7  15 SE3       30.30F
WISE*          CLEAR     55  39  54 S6        30.30F
ABINGDON*      CLEAR     53  43  68 E5        30.30F
$$

MDZ021>025-VAZ099-100-190600-
SOUTHERN MARYLAND AND THE DELMARVA PENINSULA

CITY           SKY/WX    TMP DP  RH WIND       PRES   REMARKS
PATUXENT RIVER CLEAR     51  47  86 SW6       30.31F
BAY BRIDGE APT CLEAR     54  52  94 CALM      30.30F
LEONARDTOWN    NOT AVBL
DOVER          CLEAR     51  51 100 S6        30.30F
GEORGETOWN     CLEAR     48  45  89 CALM      30.33S
EASTON         CLEAR     50  46  85 CALM      30.35S
CAMBRIDGE      CLEAR     45  45 100 CALM      30.32S
SALISBURY      CLEAR     44  43  96 CALM      30.32F
OCEAN CITY     CLEAR     45  44  97 CALM      30.33F
WALLOPS ISLAND CLEAR     46  46 100 CALM      30.33F
ACCOMACK*      CLEAR     45  44  98 CALM      30.32F
$$

NCZ012>017-030>032-190600-
NORTH CENTRAL AND EASTERN NORTH CAROLINA

CITY           SKY/WX    TMP DP  RH WIND       PRES   REMARKS
ROANOKE RAPIDS FAIR      45  45 100 CALM      30.32S
RALEIGH        PTCLDY    45  45 100 CALM      30.32F
ELIZABETH CITY CLEAR     59  56  89 N6        30.31F
AHOSKIE*       CLEAR     46  46 100 CALM      30.32S
EDENTON*       CLEAR     54  52  93 CALM      30.31F
CURRITUCK*     CLEAR     53  52  97 CALM      30.32S
KILL DEVIL HLS CLEAR     64  56  75 CALM      30.29S
MANTEO         CLEAR    N/A N/A N/A NE6       30.30S
CAPE HATTERAS  CLEAR     66  62  87 NE7       30.26F
TARBORO*       NOT AVBL
GOLDSBORO      CLEAR     52  49  91 CALM      30.28F
WASHINGTON     PTCLDY    52  50  93 NE3       30.30F
GREENVILLE     CLEAR     52  52 100 CALM      30.31S FOG
NEW BERN       MOCLDY    60  57  89 NE5       30.30S
WILMINGTON     CLEAR     57  54  89 NE5       30.27F
$$

VAZ048-190600-
ELSEWHERE

CITY           SKY/WX    TMP DP  RH WIND       PRES   REMARKS
HARRISBURG PA  PTCLDY    51  48  89 E6        30.27F
BALTIMORE      PTCLDY    47  46  97 CALM      30.30F
ANNAPOLIS      CLEAR     54  52  93 CALM      30.30F
ANDREWS AFB    CLEAR     49  45  84 S7        30.30S
PHILADELPHIA   CLEAR     57  47  69 SW7       30.30F
HENDERSON NC   CLEAR     43  40  92 CALM      30.32F
GREENSBORO     PTCLDY    46  42  86 CALM      30.31F
ROCKY MOUNT    CLEAR     48  48 100 CALM      30.31F FOG
$$

VAZ100-190600-
MARINE

STATION/POSITION TIME  TEMP    WIND        PRES    WAVE   SWELL
                       AIR SEA DIR/SP/G            HT/PER HT/PER
                 (UTC) (F)     (DEG/KT/KT) (MB)    (FT/S) (FT/S)
BRANDYWINE LGT   0442   62     240/ 14/ 15 1026.8S
CAPE MAY NJ      0448   62 65  240/ 10/ 11 1026.1R
LEWES DE         0448   54 65  220/  5/  6 1026.4F
15NM E FENWICK I 0450   63 67  240/  8/ 10 1027.3S   3/ 9   3/ 9
OCEAN-CITY-INLET 0448   57 66  290/  3/  4 1027.2F
WACHAPREAGUE VA  0448   49 62     CALM     1026.8F
THOMAS POINT MD  0500   61 68  210/ 11/ 13   N/A
GOOSES REEF MD   0500   62     250/ 10/ 12 1026.1
COVE POINT MD    0448   59     220/  9/ 10 1027.2F
SOLOMONS ISLAND  0448   58 69  220/  5/  7 1026.3S
BISHOPS HEAD MD  0448   62 63  170/  8/ 10 1026.8F
PINEY POINT MD   0448          230/  9/ 10   N/A
POTOMAC MD       0500      69                N/A
CAMBRIDGE MD     0448   52 66              1027.3F
LEWISETTA VA     0442   55 65  220/  4/  6 1026.6F
RAPPAHANNOCK LGT 0448          160/  7/  9 1027.2F
STINGRAY PT      0500                        N/A     1
YORK RVR RNG VA  0448   63     180/  5/  7 1027.0F
YORKTOWN VA      0448   56 70  210/  2/  3 1026.4F
JAMESTOWN VA     0500                        N/A     0
DOMINION TERM VA 0448   63     130/  5/  6 1026.7F
KIPTOPEKE VA     0448      67  110/  4/  4   N/A
CAPE HENRY VA    0448   62     130/  4/  4   N/A
WILLOUBY STN VA  0442   61     140/  5/  5 1026.5F
S CRANEY ISL VA  0448   61     120/  3/  4 1026.4F
CAPE HENRY BUOY  0500      70                N/A     3/ 9
1ST LANDING BUOY 0440   64                 1026.6F
CAPE CHARLES BUO 0451      70                N/A     3/10   2/11
64NM E OF VA BCH 0450   66 67   70/ 10/ 12 1026.4F   4/ 8   3/ 8
DUCK PIER NC     0448   66 69   40/  7/  9 1025.7F
44100 DUCK FRF   0435      70                N/A     4/10   2/11
44056 DUCK FRF   0500      69                N/A     3/10   2/11
OREGON INLET NC  0442   67 65   40/  9/ 13 1025.4F
HATTERAS NC      0448   67 68   50/  7/ 10 1024.6F
DIAMOND SHLS NC  0450   74 81  110/ 16/ 17 1024.0F   5/ 9   3/ 9
CAPE LOOKOUT NC  0500   64     360/ 12/ 15 1024.1F
$$




USA.gov is the U.S. government's official web portal to all federal, state and local government web resources and services.